Date String (YYYY-MM-DD hh:mm:ss) UTC,Instrument flags,Ambient pressure (hPa),Sample flow (lpm),Bypass flow (lpm),Sample temperature (°C),Ambient temperature (°C),ASC tube jacket temperature (°C),LED temperature (°C),Box temperature (°C),Sample RH (%),Span deviation,Mass concentration (μg/m³),Mass concentration (μg/m³),Mass concentration (μg/m³)
DateTimeUTC,F1_M11,P_M11,Q1_M11,Q2_M11,T1_M11,T2_M11,T3_M11,T4_M11,T5_M11,U1_M11,ZSPAN_M11,X0_M11,X2_M11,X1_M11
2022-05-03 14:00:00,,0822.4,5.00,0.00,23.4,22.6,00.0,32.4,25.2,22.5,-000.8,0011.70,0009.12,0008.77
2022-05-03 14:01:00,,0822.4,5.00,0.00,23.4,22.6,00.0,32.4,25.2,22.5,-000.6,0011.65,0009.17,0008.84
2022-05-03 14:02:00,,0822.4,5.01,0.00,23.4,22.6,00.0,32.4,25.2,22.5,-000.7,0011.46,0009.23,0008.92
2022-05-03 14:03:00,,0822.5,4.99,0.00,23.4,22.6,00.0,32.4,25.2,22.5,-000.3,0011.28,0009.21,0008.94
2022-05-03 14:04:00,,0822.4,5.00,0.00,23.4,22.6,00.0,32.4,25.2,22.4,-000.3,0011.23,0009.22,0008.97
2022-05-03 14:05:00,,0822.4,5.00,0.00,23.4,22.6,00.0,32.4,25.2,22.5,-000.5,0011.20,0009.23,0009.00
2022-05-03 14:06:00,,0822.5,5.00,0.00,23.4,22.6,00.0,32.4,25.2,22.5,-000.7,0011.13,0009.20,0009.01
2022-05-03 14:07:00,,0822.4,4.99,0.00,23.4,22.6,00.0,32.4,25.2,22.5,-000.7,0011.29,0009.19,0009.02
2022-05-03 14:08:00,,0822.5,5.01,0.00,23.4,22.6,00.0,32.4,25.2,22.5,-000.8,0011.36,0009.23,0009.05
2022-05-03 14:09:00,,0822.5,4.99,0.00,23.4,22.6,00.0,32.4,25.2,22.5,-000.7,0011.32,0009.24,0009.06
2022-05-03 14:10:00,,0822.5,4.99,0.00,23.4,22.6,00.0,32.4,25.2,22.6,-000.6,0011.24,0009.23,0009.06
2022-05-03 14:11:00,,0822.4,5.02,0.00,23.4,22.6,00.0,32.4,25.2,22.6,-000.8,0011.18,0009.22,0009.06
2022-05-03 14:12:00,,0822.5,5.01,0.00,23.4,22.6,00.0,32.4,25.2,22.6,-001.0,0011.08,0009.17,0009.02
2022-05-03 14:13:00,,0822.5,4.98,0.00,23.4,22.6,00.0,32.4,25.2,22.6,-001.1,0010.88,0009.09,0008.95
2022-05-03 14:14:00,,0822.4,5.01,0.00,23.4,22.6,00.0,32.4,25.1,22.7,-001.3,0010.84,0009.05,0008.90
2022-05-03 14:15:00,,0822.5,4.99,0.00,23.4,22.6,00.0,32.4,25.1,22.7,-001.1,0010.75,0008.99,0008.84
2022-05-03 14:16:00,,0822.5,4.99,0.00,23.4,22.6,00.0,32.4,25.1,22.7,-000.9,0010.69,0008.92,0008.78
2022-05-03 14:17:00,,0822.5,5.00,0.00,23.4,22.5,00.0,32.4,25.1,22.7,-000.9,0010.62,0008.88,0008.73
2022-05-03 14:18:00,,0822.5,4.99,0.00,23.4,22.5,00.0,32.4,25.1,22.7,-000.7,0010.38,0008.84,0008.69
2022-05-03 14:19:00,,0822.5,5.00,0.00,23.4,22.5,00.0,32.4,25.1,22.7,-000.8,0010.25,0008.76,0008.63
2022-05-03 14:20:00,,0822.5,5.00,0.00,23.4,22.5,00.0,32.4,25.1,22.7,-000.8,0010.14,0008.67,0008.56
2022-05-03 14:21:00,,0822.5,4.99,0.00,23.3,22.5,00.0,32.4,25.1,22.8,-001.0,0010.07,0008.60,0008.47
2022-05-03 14:22:00,,0822.5,5.00,0.00,23.4,22.5,00.0,32.3,25.1,22.8,-001.0,0009.97,0008.50,0008.39
2022-05-03 14:23:00,,0822.5,5.00,0.00,23.4,22.5,00.0,32.3,25.1,22.8,-001.1,0009.88,0008.42,0008.31
2022-05-03 14:24:00,,0822.5,5.00,0.00,23.4,22.5,00.0,32.3,25.1,22.9,-001.1,0009.81,0008.36,0008.24
2022-05-03 14:25:00,,0822.4,5.01,0.00,23.4,22.6,00.0,32.3,25.1,22.9,-001.0,0009.74,0008.30,0008.19
2022-05-03 14:26:00,,0822.4,5.00,0.00,23.4,22.6,00.0,32.3,25.1,22.9,-000.9,0009.65,0008.23,0008.13
2022-05-03 14:27:00,,0822.4,5.00,0.00,23.4,22.6,00.0,32.3,25.1,22.9,-001.1,0009.58,0008.16,0008.07
2022-05-03 14:28:00,,0822.3,5.01,0.00,23.4,22.6,00.0,32.3,25.1,22.9,-001.3,0009.54,0008.12,0008.01
2022-05-03 14:29:00,,0822.3,4.99,0.00,23.4,22.5,00.0,32.3,25.1,23.0,-001.3,0009.46,0008.05,0007.95
2022-05-03 14:30:00,,0822.4,5.00,0.00,23.4,22.5,00.0,32.3,25.1,23.1,-001.2,0009.40,0008.00,0007.92
2022-05-03 14:31:00,,0822.3,5.00,0.00,23.3,22.5,00.0,32.3,25.1,24.3,-001.0,0009.43,0007.99,0007.89
2022-05-03 14:32:00,,0822.3,5.00,0.00,23.3,22.5,00.0,32.3,25.1,24.5,-000.8,0009.44,0007.97,0007.88
2022-05-03 14:33:00,,0822.3,5.01,0.00,23.3,22.5,00.0,32.3,25.1,23.5,-000.7,0009.40,0007.94,0007.84
2022-05-03 14:34:00,,0822.4,4.99,0.00,23.3,22.5,00.0,32.3,25.1,23.2,-000.6,0009.37,0007.90,0007.80
2022-05-03 14:35:00,,0822.4,4.98,0.00,23.3,22.5,00.0,32.3,25.1,23.1,-000.5,0009.29,0007.84,0007.75
2022-05-03 14:36:00,,0822.5,5.01,0.00,23.3,22.5,00.0,32.3,25.1,23.1,-000.8,0009.30,0007.83,0007.73
2022-05-03 14:37:00,,0822.5,4.99,0.00,23.3,22.5,00.0,32.3,25.1,23.0,-000.9,0009.34,0007.84,0007.74
2022-05-03 14:38:00,,0822.5,5.00,0.00,23.3,22.5,00.0,32.3,25.1,22.9,-000.8,0009.38,0007.85,0007.75
2022-05-03 14:39:00,,0822.5,4.99,0.00,23.3,22.6,00.0,32.3,25.1,22.9,-000.5,0009.63,0007.85,0007.75
2022-05-03 14:40:00,,0822.5,5.00,0.00,23.3,22.6,00.0,32.3,25.1,22.9,-000.7,0009.82,0007.84,0007.73
2022-05-03 14:41:00,,0822.5,5.01,0.00,23.3,22.6,00.0,32.3,25.1,22.8,-000.8,0009.82,0007.83,0007.70
2022-05-03 14:42:00,,0822.5,5.00,0.00,23.3,22.6,00.0,32.3,25.2,22.8,-000.9,0009.76,0007.80,0007.67
2022-05-03 14:43:00,,0822.5,5.00,0.00,23.4,22.6,00.0,32.3,25.2,22.7,-001.0,0009.68,0007.78,0007.64
2022-05-03 14:44:00,,0822.5,5.01,0.00,23.4,22.6,00.0,32.3,25.2,22.8,-001.2,0009.87,0007.79,0007.66
2022-05-03 14:45:00,,0822.5,4.99,0.00,23.4,22.6,00.0,32.3,25.1,22.8,-001.3,0009.93,0007.82,0007.68
2022-05-03 14:46:00,,0822.5,4.99,0.00,23.4,22.6,00.0,32.3,25.1,22.7,-001.3,0010.04,0007.91,0007.75
2022-05-03 14:47:00,,0822.4,5.01,0.00,23.3,22.6,00.0,32.3,25.1,22.7,-001.2,0010.13,0008.00,0007.81
2022-05-03 14:48:00,,0822.4,4.99,0.00,23.3,22.5,00.0,32.3,25.1,22.6,-001.1,0010.15,0008.06,0007.86
2022-05-03 14:49:00,,0822.4,5.01,0.00,23.3,22.5,00.0,32.3,25.1,22.6,-001.2,0010.16,0008.12,0007.91
2022-05-03 14:50:00,,0822.4,4.99,0.00,23.3,22.5,00.0,32.3,25.1,22.6,-001.2,0010.22,0008.20,0008.00
2022-05-03 14:51:00,,0822.5,5.00,0.00,23.3,22.5,00.0,32.3,25.1,22.7,-001.2,0009.95,0008.29,0008.09
2022-05-03 14:52:00,,0822.5,5.01,0.00,23.3,22.5,00.0,32.3,25.0,22.7,-000.9,0010.06,0008.40,0008.19
2022-05-03 14:53:00,,0822.5,4.99,0.00,23.3,22.5,00.0,32.3,25.0,22.7,-000.8,0010.16,0008.48,0008.27
2022-05-03 14:54:00,,0822.4,4.99,0.00,23.3,22.5,00.0,32.3,25.0,22.8,-000.9,0010.46,0008.58,0008.37
2022-05-03 14:55:00,,0822.3,5.01,0.00,23.3,22.5,00.0,32.3,25.1,22.8,-000.7,0010.39,0008.63,0008.42
2022-05-03 14:56:00,,0822.3,5.00,0.00,23.3,22.5,00.0,32.3,25.1,22.8,-000.6,0010.30,0008.66,0008.45
2022-05-03 14:57:00,,0822.3,4.99,0.00,23.3,22.5,00.0,32.3,25.1,22.8,-000.4,0010.67,0008.65,0008.45
2022-05-03 14:58:00,,0822.3,5.00,0.00,23.3,22.5,00.0,32.3,25.1,22.8,-000.4,0010.72,0008.63,0008.46
2022-05-03 14:59:00,,0822.3,5.01,0.00,23.3,22.5,00.0,32.3,25.1,22.9,-000.5,0010.75,0008.62,0008.45
